[[{"header":{"parameterUnit":"m.s-1","parameterCategory":1,"la1":30.2991,"la2":30.254,"lo1":-89.0895,"lo2":-89.0444,"dy":0.0017,"dx":0.0017,"nx":28,"ny":28,"refTime":"2024-06-16T09:00:00:Z","depth":0,"parameterNumber":2,"parameterNumberName":"U-component_of_WINDS"},"data":[0,0,0,0,0,0,0,0,0,0,0,0,0,0,0,0,0,0,0,0,0,0,0,0,0,0,0,0,0,0,0,0,0,0,0,0,0,0,0,0,0,0,0,0,0,0,0,0,0,0,0,0,0,0,0,0,0,0,-2.3519,-2.3519,0,-2.3478,-2.3477,-2.3477,-2.3393,-2.3391,-2.3389,-2.3388,-2.3347,-2.3347,-2.3348,0,0,0,0,0,0,0,0,0,0,0,0,0,-2.3528,-2.3528,-2.3519,-2.3519,-2.3518,-2.3478,-2.3477,-2.3477,-2.3393,-2.3391,-2.3389,-2.3387,-2.3347,-2.3347,-2.3348,0,0,0,0,0,0,0,0,0,0,0,0,0,-2.3509,-2.3528,-2.3519,-2.3472,-2.3467,-2.3478,-2.3477,-2.3476,-2.3393,-2.3391,-2.3388,-2.3386,-2.3347,-2.3347,-2.3348,-2.3402,0,0,-2.335,-2.335,0,0,0,0,0,0,0,0,-2.351,-2.3509,-2.3479,-2.3475,-2.347,-2.3438,-2.3465,-2.3452,-2.3394,-2.3421,-2.3388,-2.3385,-2.3379,-2.3377,-2.3375,-2.34,-2.3399,-2.335,-2.335,-2.3351,-2.3351,0,0,0,0,0,0,0,-2.3512,-2.351,-2.3503,-2.3479,-2.3473,-2.3453,-2.3447,-2.3462,-2.3415,-2.3419,-2.3413,-2.3409,-2.3376,-2.3374,-2.3373,-2.3398,-2.335,-2.3351,-2.3351,-2.3351,-2.3465,-2.3468,0,0,0,0,0,0,-2.352,-2.3512,-2.3504,-2.3502,-2.3484,-2.3455,-2.3448,-2.3451,-2.3415,-2.3407,-2.3411,-2.3405,-2.3374,-2.3373,-2.3371,-2.3433,-2.3351,-2.3351,-2.3352,-2.3463,-2.3466,-2.3469,0,0,0,0,0,0,-2.352,-2.352,-2.3506,-2.3505,-2.3502,-2.3457,-2.346,-2.3451,-2.3449,-2.3409,-2.34,-2.3418,-2.3372,-2.337,-2.3395,-2.343,-2.3352,-2.3352,-2.346,-2.3464,-2.3467,-2.3556,0,0,0,0,0,0,-2.3521,-2.352,-2.3541,-2.3506,-2.3502,-2.353,-2.3462,-2.3452,-2.345,-2.3442,-2.3413,-2.3405,-2.337,-2.3394,-2.3396,-2.343,-2.3353,-2.3456,-2.3462,-2.3466,-2.3549,-2.3562,-2.3573,0,0,0,0,0,-2.3521,-2.3568,-2.3542,-2.3542,-2.3526,-2.3532,-2.353,-2.3488,-2.3454,-2.3473,-2.3447,-2.3406,-2.3426,-2.3398,-2.3398,-2.3433,-2.3454,-2.346,-2.3466,-2.3544,-2.356,-2.3573,0,0,0,0,0,0,-2.3608,-2.3562,-2.3533,-2.357,-2.3555,-2.3518,-2.3542,-2.3506,-2.3502,-2.3495,-2.3443,-2.3437,-2.3469,-2.3453,-2.3422,-2.3483,-2.3433,-2.344,-2.3493,-2.3507,-2.3519,-2.3522,-2.3353,0,0,0,0,0,-2.3631,-2.364,-2.3599,-2.3635,-2.3629,-2.3587,-2.3588,-2.3557,-2.3541,-2.3535,-2.351,-2.3496,-2.3499,-2.3502,-2.3502,-2.3546,-2.3539,-2.357,-2.3582,-2.3592,-2.3598,-2.362,-2.3634,-2.3488,-2.3488,-2.3488,0,0,-2.368,-2.3656,-2.3664,-2.3652,-2.3637,-2.3648,-2.3583,-2.3596,-2.3604,-2.3537,-2.3558,-2.354,-2.3521,-2.3555,-2.3569,-2.3543,-2.3637,-2.36,-2.3608,-2.3609,-2.3628,-2.3642,-2.3654,-2.3492,-2.3491,-2.3491,0,0,-2.3773,-2.3756,-2.3783,-2.377,-2.3748,-2.372,-2.3726,-2.3694,-2.3679,-2.37,-2.365,-2.3658,-2.3664,-2.3652,-2.3647,-2.3735,-2.3697,-2.3737,-2.3798,-2.382,-2.3832,-2.3842,-2.3873,-2.3885,-2.3743,-2.3743,-2.3743,0,-2.3836,-2.3849,-2.3803,-2.3819,-2.3815,-2.3754,-2.3782,-2.3772,-2.3752,-2.3751,-2.3721,-2.3727,-2.371,-2.3741,-2.3762,-2.376,-2.3766,-2.374,-2.3834,-2.3843,-2.3852,-2.3881,-2.3893,-2.3748,-2.3747,-2.3747,-2.3746,0,-2.3928,-2.3938,-2.3963,-2.3944,-2.3943,-2.3966,-2.3923,-2.3927,-2.3896,-2.3871,-2.3892,-2.3869,-2.3864,-2.3868,-2.3839,-2.3895,-2.388,-2.3843,-2.3792,-2.3872,-2.3898,-2.3909,-2.3755,-2.3753,-2.3752,-2.3751,0,0,-2.4076,-2.4031,-2.4041,-2.4031,-2.4002,-2.4009,-2.4029,-2.4023,-2.4028,-2.4016,-2.4031,-2.4037,-2.4002,-2.3997,-2.3965,-2.3984,-2.4055,-2.3945,-2.3943,-2.3966,-2.4116,-2.4144,-2.4158,-2.4029,-2.4031,-2.4033,-2.4118,0,-2.4164,-2.4194,-2.4152,-2.4192,-2.4201,-2.4142,-2.4159,-2.4143,-2.412,-2.4124,-2.4098,-2.4103,-2.4057,-2.4053,-2.407,-2.4043,-2.4085,-2.4036,-2.4044,-2.4044,-2.4051,-2.4172,-2.4202,-2.4284,-2.4128,-2.413,-2.4131,0,-2.427,-2.4262,-2.4303,-2.4271,-2.4273,-2.4289,-2.428,-2.4284,-2.4265,-2.4247,-2.424,-2.4201,-2.4218,-2.4168,-2.419,-2.4159,-2.4159,-2.4146,-2.4148,-2.4148,-2.4093,-2.4176,-2.4308,-2.4321,-2.4147,-2.4146,-2.4145,0,-2.4375,-2.4375,-2.4399,-2.4392,-2.4356,-2.4368,-2.4354,-2.4332,-2.4331,-2.4322,-2.4321,-2.4315,-2.4313,-2.4309,-2.427,-2.4237,-2.4297,-2.4244,-2.4283,-2.4284,-2.4299,-2.4299,-2.4434,-2.4299,-2.4298,-2.4298,-2.4298,0,-2.4477,-2.4505,-2.4445,-2.446,-2.4489,-2.444,-2.447,-2.445,-2.4431,-2.4441,-2.4389,-2.44,-2.4347,-2.4352,-2.4322,-2.4345,-2.4344,-2.433,-2.4322,-2.4335,-2.4337,-2.4335,-2.4329,-2.4301,-2.4301,-2.43,-2.4299,0,-2.46,-2.4561,-2.4583,-2.4546,-2.4537,-2.456,-2.4529,-2.4541,-2.4514,-2.4527,-2.4527,-2.4485,-2.4488,-2.4448,-2.4443,-2.4423,-2.446,-2.4442,-2.4467,-2.4461,-2.4503,-2.45,-2.4642,-2.4659,-2.4512,-2.4514,-2.4515,0,-2.4668,-2.4688,-2.4652,-2.4655,-2.4643,-2.4648,-2.4646,-2.4599,-2.4599,-2.4578,-2.4593,-2.4592,-2.4588,-2.4596,-2.4565,-2.4561,-2.4542,-2.4592,-2.4541,-2.4554,-2.4543,-2.4543,-2.4545,-2.4603,-2.4605,-2.4607,-2.4608,0,-2.4795,-2.4774,-2.4773,-2.4766,-2.4765,-2.4757,-2.4745,-2.4751,-2.4699,-2.4702,-2.4704,-2.4701,-2.4696,-2.4695,-2.4685,-2.4669,-2.4631,-2.4624,-2.4633,-2.4647,-2.4661,-2.4655,-2.4497,-2.4621,-2.462,-2.4619,-2.4618,-2.4618,-2.4892,-2.4907,-2.4884,-2.4885,-2.4871,-2.4861,-2.4871,-2.4844,-2.4845,-2.4837,-2.4808,-2.4815,-2.4795,-2.4777,-2.4765,-2.477,-2.4745,-2.4758,-2.4762,-2.4766,-2.4774,-2.466,-2.4768,-2.4767,-2.4767,-2.4766,-2.4766,0,-2.5016,-2.4998,-2.4999,-2.4985,-2.4985,-2.4947,-2.4932,-2.4935,-2.4942,-2.4926,-2.4923,-2.4925,-2.4924,-2.4892,-2.4887,-2.4897,-2.4879,-2.4897,-2.4896,-2.4893,-2.4796,-2.4789,-2.4912,-2.4912,-2.4912,-2.4912,-2.4912,-2.4912,-2.5081,-2.5104,-2.508,-2.5095,-2.5077,-2.5083,-2.5078,-2.5068,-2.5055,-2.506,-2.5058,-2.5037,-2.5014,-2.5007,-2.5004,-2.4994,-2.4995,-2.502,-2.5005,-2.4914,-2.49,-2.4887,-2.488,-2.502,-2.5021,-2.5102,-2.5103,-2.5104]},{"header":{"parameterUnit":"m.s-1","parameterCategory":1,"la1":30.2991,"la2":30.254,"lo1":-89.0895,"lo2":-89.0444,"dy":0.0017,"dx":0.0017,"nx":28,"ny":28,"refTime":"2024-06-16T09:00:00:Z","depth":0,"parameterNumber":3,"parameterNumberName":"V-component_of_WINDS"},"data":[0,0,0,0,0,0,0,0,0,0,0,0,0,0,0,0,0,0,0,0,0,0,0,0,0,0,0,0,0,0,0,0,0,0,0,0,0,0,0,0,0,0,0,0,0,0,0,0,0,0,0,0,0,0,0,0,0,0,2.8085,2.8085,0,2.8029,2.8029,2.8028,2.7944,2.7942,2.7941,2.7939,2.7882,2.7882,2.7882,0,0,0,0,0,0,0,0,0,0,0,0,0,2.8119,2.8119,2.8085,2.8084,2.8084,2.8029,2.8029,2.8028,2.7944,2.7942,2.794,2.7939,2.7882,2.7882,2.7882,0,0,0,0,0,0,0,0,0,0,0,0,0,2.8088,2.8119,2.8085,2.8035,2.803,2.803,2.8029,2.8028,2.7944,2.7942,2.794,2.7938,2.7882,2.7882,2.7882,2.7926,0,0,2.7881,2.7881,0,0,0,0,0,0,0,0,2.809,2.8087,2.8043,2.8039,2.8033,2.7991,2.8019,2.7993,2.7945,2.7977,2.7939,2.7937,2.792,2.7917,2.7911,2.7923,2.792,2.7881,2.7881,2.7881,2.7881,0,0,0,0,0,0,0,2.8092,2.8089,2.8063,2.8043,2.8037,2.8016,2.8009,2.8014,2.7962,2.7974,2.7968,2.7962,2.7917,2.7912,2.7909,2.792,2.7881,2.7881,2.7881,2.7881,2.7962,2.7964,0,0,0,0,0,0,2.8101,2.8091,2.8065,2.8061,2.8056,2.8017,2.8009,2.8007,2.7962,2.7952,2.7964,2.7959,2.7913,2.791,2.7907,2.7953,2.7881,2.7881,2.7881,2.796,2.7963,2.7965,0,0,0,0,0,0,2.8103,2.81,2.8067,2.8074,2.8069,2.8019,2.8017,2.8007,2.8001,2.7954,2.7944,2.7968,2.7911,2.7907,2.7921,2.795,2.7881,2.7881,2.7957,2.7961,2.7964,2.8047,0,0,0,0,0,0,2.8104,2.8101,2.8117,2.8075,2.8069,2.8082,2.8019,2.8007,2.8001,2.7993,2.7955,2.7947,2.7909,2.7922,2.7921,2.7948,2.788,2.7954,2.7959,2.7963,2.8041,2.8053,2.8063,0,0,0,0,0,2.8105,2.8143,2.8118,2.8115,2.8088,2.8084,2.808,2.8036,2.8004,2.8019,2.7989,2.7948,2.7948,2.7924,2.7922,2.795,2.7952,2.7958,2.7963,2.8037,2.8051,2.8062,0,0,0,0,0,0,2.8189,2.8137,2.8108,2.8134,2.8114,2.807,2.8088,2.8052,2.8041,2.8034,2.798,2.7972,2.7992,2.7973,2.7948,2.7989,2.7944,2.7949,2.8001,2.8013,2.8024,2.8027,2.788,0,0,0,0,0,2.8211,2.8212,2.8166,2.8193,2.8185,2.8139,2.8136,2.8103,2.808,2.8072,2.8042,2.8022,2.8017,2.8014,2.8007,2.8039,2.8029,2.8058,2.8068,2.8077,2.8081,2.8094,2.8106,2.7982,2.7982,2.7982,0,0,2.8255,2.8226,2.8231,2.8209,2.819,2.8193,2.8132,2.8138,2.8139,2.8072,2.8083,2.8061,2.8035,2.8057,2.8066,2.8042,2.8114,2.8084,2.8091,2.809,2.8101,2.8113,2.8123,2.7986,2.7985,2.7984,0,0,2.8336,2.8316,2.8334,2.8317,2.8289,2.8258,2.8263,2.8224,2.8206,2.8217,2.8166,2.8167,2.816,2.8143,2.8133,2.8208,2.8169,2.8208,2.8262,2.8276,2.8285,2.8294,2.8318,2.8328,2.8213,2.8213,2.8213,0,2.8394,2.8395,2.8349,2.8357,2.8348,2.8289,2.8308,2.8293,2.8264,2.8259,2.8233,2.8222,2.8201,2.8217,2.8235,2.823,2.8233,2.821,2.8288,2.8296,2.8303,2.8325,2.8335,2.8217,2.8217,2.8216,2.8216,0,2.8467,2.847,2.8488,2.8461,2.8456,2.8469,2.8424,2.8424,2.8392,2.8364,2.8374,2.8346,2.8332,2.8334,2.8304,2.8346,2.8331,2.8298,2.825,2.832,2.834,2.8348,2.8224,2.8222,2.8221,2.822,0,0,2.8597,2.8545,2.8552,2.8539,2.8504,2.8504,2.8516,2.8501,2.8501,2.8484,2.849,2.8486,2.8454,2.8443,2.841,2.8423,2.8481,2.8386,2.8385,2.8403,2.8523,2.8547,2.8558,2.8456,2.8458,2.8459,2.8524,0,2.8669,2.8684,2.8642,2.8667,2.8668,2.8612,2.8621,2.8601,2.8575,2.8572,2.8543,2.854,2.8499,2.8492,2.8502,2.8472,2.8504,2.8467,2.846,2.846,2.8465,2.8568,2.8594,2.8657,2.8532,2.8533,2.8534,0,2.8754,2.8741,2.8766,2.8729,2.8727,2.8736,2.8719,2.8717,2.8693,2.8673,2.8661,2.8623,2.863,2.8587,2.8595,2.8571,2.8566,2.8551,2.8552,2.8547,2.8499,2.8564,2.8676,2.8685,2.8547,2.8546,2.8545,0,2.8843,2.8832,2.8845,2.8836,2.8793,2.8801,2.8783,2.8756,2.875,2.8736,2.8731,2.8718,2.871,2.87,2.8659,2.8632,2.8671,2.8625,2.8654,2.8655,2.8662,2.8662,2.8772,2.8664,2.8664,2.8664,2.8664,0,2.8926,2.8943,2.8884,2.8892,2.8909,2.8862,2.888,2.8857,2.8834,2.8835,2.8788,2.879,2.8737,2.8734,2.8702,2.8712,2.871,2.8693,2.8684,2.8696,2.8697,2.8689,2.8683,2.8666,2.8666,2.8665,2.8665,0,2.9027,2.8989,2.8999,2.8958,2.8948,2.8962,2.8927,2.8932,2.8904,2.8907,2.8905,2.886,2.8854,2.8813,2.8797,2.8776,2.8796,2.878,2.8804,2.8798,2.8827,2.8824,2.8934,2.8945,2.8833,2.8835,2.8836,0,2.9081,2.9092,2.9053,2.9051,2.9036,2.9033,2.9026,2.8981,2.8976,2.8948,2.8957,2.8946,2.8935,2.8927,2.8893,2.888,2.8861,2.8901,2.8859,2.887,2.8859,2.8857,2.8857,2.8909,2.8911,2.8912,2.8913,0,2.918,2.916,2.9152,2.9138,2.9132,2.9118,2.9102,2.9103,2.9052,2.9049,2.9041,2.9033,2.9017,2.9006,2.8988,2.8969,2.8932,2.8927,2.8932,2.8943,2.8955,2.8946,2.8826,2.8924,2.8923,2.8922,2.8921,2.8921,2.9257,2.9264,2.9237,2.923,2.9213,2.9199,2.9201,2.9173,2.9166,2.9149,2.9123,2.9119,2.9094,2.9065,2.9049,2.9045,2.9023,2.9032,2.9033,2.9036,2.9041,2.8959,2.9042,2.9041,2.9041,2.9041,2.904,0,2.935,2.9331,2.9325,2.9303,2.9298,2.9265,2.9245,2.9242,2.9239,2.9218,2.9209,2.92,2.9189,2.9155,2.9141,2.9144,2.9126,2.9141,2.9139,2.9135,2.9062,2.9057,2.9155,2.9155,2.9155,2.9155,2.9155,2.9155,2.9398,2.9408,2.9386,2.9386,2.9366,2.9362,2.9353,2.9339,2.9322,2.9315,2.9306,2.9284,2.9257,2.9241,2.9229,2.9219,2.9215,2.9235,2.9219,2.9151,2.914,2.913,2.9125,2.9235,2.9236,2.9292,2.9292,2.9293]}]]